TimeAKDT,TemperatureF,Dew PointF,Humidity,Sea Level PressureIn,VisibilityMPH,Wind Direction,Wind SpeedMPH,Gust SpeedMPH,PrecipitationIn,Events,Conditions,WindDirDegrees,DateUTC
12:53 AM,33.1,12.9,43,30.21,10.0,North,4.6,-,N/A,,Scattered Clouds,350,2013-05-19 08:53:00
1:53 AM,33.1,12.0,42,30.24,10.0,North,5.8,-,N/A,,Scattered Clouds,10,2013-05-19 09:53:00
2:53 AM,32.0,12.0,44,30.26,10.0,NE,4.6,-,N/A,,Scattered Clouds,40,2013-05-19 10:53:00
3:53 AM,30.9,10.0,42,30.29,10.0,NNE,4.6,-,N/A,,Scattered Clouds,20,2013-05-19 11:53:00
4:53 AM,30.0,10.0,43,30.32,10.0,NW,3.5,-,N/A,,Scattered Clouds,320,2013-05-19 12:53:00
5:53 AM,30.9,12.0,46,30.35,10.0,Calm,Calm,-,N/A,,Partly Cloudy,0,2013-05-19 13:53:00
6:53 AM,33.1,10.9,40,30.37,10.0,North,3.5,-,N/A,,Partly Cloudy,10,2013-05-19 14:53:00
7:53 AM,34.0,12.9,42,30.40,10.0,NNW,4.6,-,N/A,,Partly Cloudy,340,2013-05-19 15:53:00
8:53 AM,35.1,12.0,39,30.43,10.0,North,4.6,-,N/A,,Clear,350,2013-05-19 16:53:00
9:53 AM,37.0,12.9,37,30.45,10.0,NW,5.8,-,N/A,,Clear,310,2013-05-19 17:53:00
10:53 AM,39.0,10.0,30,30.47,10.0,Variable,4.6,-,N/A,,Partly Cloudy,0,2013-05-19 18:53:00
11:53 AM,39.9,12.0,32,30.49,10.0,WNW,4.6,-,N/A,,Partly Cloudy,300,2013-05-19 19:53:00
12:53 PM,42.1,19.0,40,30.51,10.0,WSW,6.9,-,N/A,,Partly Cloudy,250,2013-05-19 20:53:00
1:53 PM,42.1,12.0,29,30.52,10.0,SW,3.5,-,N/A,,Partly Cloudy,230,2013-05-19 21:53:00
2:53 PM,44.1,12.9,28,30.53,10.0,WNW,8.1,-,N/A,,Scattered Clouds,290,2013-05-19 22:53:00
3:53 PM,45.0,18.0,34,30.54,10.0,West,8.1,-,N/A,,Scattered Clouds,280,2013-05-19 23:53:00
4:53 PM,45.0,18.0,34,30.54,10.0,WNW,8.1,-,N/A,,Partly Cloudy,300,2013-05-20 00:53:00
5:53 PM,45.0,19.0,36,30.55,10.0,West,9.2,-,N/A,,Partly Cloudy,280,2013-05-20 01:53:00
6:53 PM,46.0,19.0,34,30.56,10.0,West,9.2,-,N/A,,Scattered Clouds,280,2013-05-20 02:53:00
7:53 PM,45.0,18.0,34,30.57,10.0,WSW,11.5,-,N/A,,Scattered Clouds,240,2013-05-20 03:53:00
8:53 PM,43.0,17.1,35,30.58,10.0,WSW,8.1,-,N/A,,Scattered Clouds,240,2013-05-20 04:53:00
9:53 PM,42.1,19.9,41,30.58,10.0,SW,4.6,-,N/A,,Partly Cloudy,230,2013-05-20 05:53:00
10:53 PM,39.9,21.9,49,30.60,10.0,SW,5.8,-,N/A,,Partly Cloudy,230,2013-05-20 06:53:00
11:53 PM,37.9,24.1,57,30.61,10.0,SSW,5.8,-,N/A,,Partly Cloudy,210,2013-05-20 07:53:00